DW9706 East Hampton NY US current weather conditions

sailwx.info

Wind from 225 at 3 knots gusting 4

Air temperature 14.4° C
Dewpoint 14.1° C

Last reported at 2019-Dec-14 12:02 UTC.
Time now 2019-Dec-14 12:34 UTC

Location: N 41°01' W 072°13'.
View on Google Maps.

See reports from other nearby stations

  
Tides and Currents Weather Stations Pressure Air Temp Water Temp Dewpoint Dewpoint Depression Visibility Wind Speed Wind Dir Waves Ship Positions
date/time (UTC)wind fromknots sea level pressurealtimeterstation pressurevisibilityair tempwater tempwave heightnotes
2019-Dec-14 12:02 225 3 gusting 4 14.4
2019-Dec-14 10:52 225 5 gusting 4 13.9
2019-Dec-14 10:42 225 4 gusting 6 13.9
2019-Dec-14 10:32 202 4 gusting 7 13.9
2019-Dec-14 10:22 225 6 gusting 7 13.9
2019-Dec-14 10:12 225 6 gusting 6 13.9
2019-Dec-14 10:02 248 6 gusting 7 13.3
2019-Dec-14 09:52 202 3 gusting 6 13.3
2019-Dec-14 09:42 180 6 gusting 7 13.3
2019-Dec-14 09:32 248 6 gusting 5 13.3
2019-Dec-14 09:22 225 5 gusting 5 13.3
2019-Dec-14 09:02 225 5 gusting 4 13.3
2019-Dec-14 08:52 225 4 gusting 2 13.3
2019-Dec-14 08:42 225 6 gusting 7 13.3
2019-Dec-14 08:32 135 6 gusting 7 13.3
2019-Dec-14 08:22 292 3 gusting 5 13.3
2019-Dec-14 08:12 135 6 gusting 9 12.8
2019-Dec-14 08:02 112 6 gusting 6 12.8
2019-Dec-14 07:52 202 6 gusting 6 12.8
2019-Dec-14 07:42 158 7 gusting 11 12.8
2019-Dec-14 07:32 068 8 gusting 5 12.8
2019-Dec-14 07:22 248 6 gusting 5 12.2
2019-Dec-14 07:12 112 6 gusting 4 12.2
2019-Dec-14 07:02 112 6 gusting 5 12.2
2019-Dec-14 06:52 225 6 gusting 7 12.2
2019-Dec-14 06:42 135 4 gusting 5 12.2
2019-Dec-14 06:32 112 6 gusting 6 11.7
2019-Dec-14 06:22 135 5 gusting 9 12.2
2019-Dec-14 06:12 112 7 gusting 9 11.7
2019-Dec-14 06:02 112 6 gusting 4 11.7
2019-Dec-14 05:52 112 6 gusting 9 11.7
2019-Dec-14 05:42 090 5 gusting 5 11.7
2019-Dec-14 05:32 112 4 gusting 4 11.7
2019-Dec-14 05:22 225 4 gusting 7 11.7
2019-Dec-14 05:12 045 6 gusting 3 11.7
2019-Dec-14 05:02 225 5 gusting 9 11.7
2019-Dec-14 04:52 202 4 gusting 12 11.1
2019-Dec-14 04:42 112 6 gusting 8 11.1
2019-Dec-14 04:32 158 4 gusting 3 11.1
2019-Dec-14 04:22 158 3 gusting 2 10.6
2019-Dec-14 04:12 158 2 gusting 1 10.6
2019-Dec-14 04:02 158 4 gusting 2 10.6
2019-Dec-14 03:52 112 3 gusting 3 10.0
2019-Dec-14 03:42 112 2 gusting 2 10.0
2019-Dec-14 03:32 158 3 gusting 2 10.0
2019-Dec-14 03:22 202 2 gusting 2 10.0
2019-Dec-14 03:12 112 2 gusting 3 10.0
2019-Dec-14 03:02 158 1 gusting 1 10.0
2019-Dec-14 02:52 180 2 gusting 2 10.0
2019-Dec-14 02:42 158 1 gusting 3 10.0
2019-Dec-14 02:32 112 1 gusting 2 10.0
2019-Dec-14 02:22 158 3 gusting 3 10.0
2019-Dec-14 02:12 135 1 gusting 2 10.0
2019-Dec-14 02:02 135 3 gusting 3 10.0
2019-Dec-14 01:52 180 2 gusting 1 10.0
2019-Dec-14 01:42 112 1 gusting 1 10.0
2019-Dec-14 01:32 158 3 gusting 3 10.0
2019-Dec-14 01:22 158 2 gusting 2 10.0
2019-Dec-14 01:12 202 0 gusting 2 10.6
2019-Dec-14 01:02 158 3 gusting 1 10.6
2019-Dec-14 00:52 135 2 gusting 1 10.6
2019-Dec-14 00:42 225 5 gusting 3 10.6
2019-Dec-14 00:32 202 3 gusting 3 10.6
2019-Dec-14 00:22 202 3 gusting 3 10.6
2019-Dec-14 00:12 135 4 gusting 1 10.6
2019-Dec-14 00:02 158 2 gusting 3 10.6
2019-Dec-13 23:52 180 1 gusting 1 10.6
2019-Dec-13 23:42 202 1 gusting 3 10.6
2019-Dec-13 23:32 225 3 gusting 2 10.6
2019-Dec-13 23:22 202 3 gusting 4 10.6
2019-Dec-13 23:12 135 2 gusting 2 10.0
2019-Dec-13 23:02 202 1 gusting 2 10.0
2019-Dec-13 22:52 202 1 10.0
2019-Dec-13 22:42 180 1 gusting 0 10.0
2019-Dec-13 22:32 202 1 gusting 0 10.0
2019-Dec-13 22:22 225 0 10.0
2019-Dec-13 22:12 158 2 gusting 1 10.0
2019-Dec-13 22:02 225 3 10.0
2019-Dec-13 21:52 225 1 gusting 1 10.0
2019-Dec-13 21:42 202 0 gusting 1 9.4
2019-Dec-13 21:32 158 3 gusting 3 9.4
2019-Dec-13 21:22 090 3 gusting 5 9.4
2019-Dec-13 21:12 158 0 9.4
2019-Dec-13 21:02 202 1 gusting 2 9.4
2019-Dec-13 20:52 158 1 gusting 5 9.4
2019-Dec-13 20:42 248 2 gusting 2 9.4
2019-Dec-13 20:32 202 1 gusting 0 9.4
2019-Dec-13 20:22 225 3 gusting 2 9.4
2019-Dec-13 20:12 158 3 gusting 3 9.4
2019-Dec-13 20:02 202 1 gusting 1 8.9
2019-Dec-13 19:52 202 0 gusting 0 8.9
2019-Dec-13 19:42 202 2 gusting 2 8.9
2019-Dec-13 19:32 225 2 gusting 1 8.9
2019-Dec-13 19:22 202 2 gusting 5 8.9
2019-Dec-13 19:12 135 8.3
2019-Dec-13 19:02 158 0 gusting 3 8.3
2019-Dec-13 18:52 225 0 gusting 1 8.3
2019-Dec-13 18:42 180 1 gusting 2 8.3
2019-Dec-13 18:32 158 2 gusting 2 8.3
2019-Dec-13 18:22 202 1 gusting 0 8.3
2019-Dec-13 18:12 135 8.3
2019-Dec-13 18:02 180 8.3
2019-Dec-13 17:52 090 1 gusting 1 8.3
2019-Dec-13 17:42 158 1 gusting 1 8.3
2019-Dec-13 17:32 158 2 gusting 6 8.3
2019-Dec-13 17:22 202 8.3
2019-Dec-13 17:12 202 2 gusting 1 8.9
2019-Dec-13 17:02 225 1 gusting 2 8.9
2019-Dec-13 16:52 202 2 gusting 2 8.3
2019-Dec-13 16:42 202 2 gusting 2 8.9
2019-Dec-13 16:32 112 3 gusting 2 9.4
2019-Dec-13 16:22 225 1 gusting 0 8.9
2019-Dec-13 16:12 180 1 gusting 3 8.9
2019-Dec-13 16:02 225 3 gusting 3 9.4
2019-Dec-13 15:52 202 5 gusting 4 9.4
2019-Dec-13 15:42 225 4 gusting 3 9.4
2019-Dec-13 15:32 248 1 gusting 1 8.9
2019-Dec-13 15:22 135 3 gusting 3 8.9
2019-Dec-13 15:12 202 3 gusting 3 8.3
2019-Dec-13 15:02 225 2 gusting 1 8.3
2019-Dec-13 14:52 225 4 gusting 4 8.3
2019-Dec-13 14:42 248 3 gusting 5 7.8
2019-Dec-13 14:32 202 4 gusting 4 7.8
2019-Dec-13 14:22 248 3 gusting 3 7.2
2019-Dec-13 14:12 225 6 gusting 4 6.7
2019-Dec-13 14:02 225 2 gusting 2 6.7
2019-Dec-13 13:52 158 3 gusting 6 6.1
2019-Dec-13 13:42 248 3 gusting 3 6.1
2019-Dec-13 13:32 225 4 gusting 4 5.6
2019-Dec-13 13:22 202 4 gusting 6 5.0
2019-Dec-13 13:12 202 3 gusting 4 5.0
2019-Dec-13 13:02 158 5 gusting 4 4.4
2019-Dec-13 12:52 202 2 gusting 2 3.9
2019-Dec-13 12:42 202 2 gusting 3 3.3
2019-Dec-13 12:32 225 3 gusting 2 3.3
2019-Dec-13 12:22 202 5 gusting 7 2.8
2019-Dec-13 12:12 202 2 gusting 2 2.8
2019-Dec-13 12:02 225 2 gusting 3 2.2
2019-Dec-13 11:52 202 3 gusting 2 1.7
2019-Dec-13 11:42 158 2 gusting 1 1.1
2019-Dec-13 11:32 225 3 gusting 1 0.6
2019-Dec-13 11:22 158 -0.0
2019-Dec-13 11:12 202 3 gusting 2 -0.6
2019-Dec-13 11:02 158 2 gusting 4 -1.7
2019-Dec-13 10:52 158 -2.2
2019-Dec-13 10:42 158 -2.2
2019-Dec-13 10:32 202 -2.8
2019-Dec-13 10:22 202 0 gusting 0 -2.8
2019-Dec-13 10:12 202 -2.8
2019-Dec-13 10:02 202 -2.8
2019-Dec-13 09:52 202 -2.8
2019-Dec-13 09:42 202 -2.8
2019-Dec-13 09:32 202 -3.3
2019-Dec-13 09:22 202 -3.3
2019-Dec-13 09:12 202 -3.3
2019-Dec-13 09:02 202 -3.9
2019-Dec-13 08:52 202 -3.9
2019-Dec-13 08:42 202 -3.9
2019-Dec-13 08:32 202 -3.9
2019-Dec-13 08:22 202 -3.9
2019-Dec-13 08:12 202 -3.9
2019-Dec-13 08:02 202 -3.9
2019-Dec-13 07:52 202 -4.4
2019-Dec-13 07:42 202 -4.4
2019-Dec-13 07:32 202 -4.4
2019-Dec-13 07:22 202 -4.4
2019-Dec-13 07:02 202 -4.4
2019-Dec-13 06:52 202 -4.4
2019-Dec-13 06:42 202 0 -5.0
2019-Dec-13 06:32 202 -5.0
2019-Dec-13 06:22 202 -5.0
2019-Dec-13 06:12 202 -5.6
2019-Dec-13 06:02 202 -5.6
2019-Dec-13 05:52 202 -5.6
2019-Dec-13 05:42 202 -5.6
2019-Dec-13 05:32 202 -5.6
2019-Dec-13 05:22 202 -6.1
2019-Dec-13 05:02 202 -6.1
2019-Dec-13 04:52 202 -6.1
2019-Dec-13 04:42 202 -6.7
2019-Dec-13 04:32 202 -6.7
2019-Dec-13 04:22 202 -6.7
2019-Dec-13 04:12 202 -6.7
2019-Dec-13 04:02 202 -6.7
2019-Dec-13 03:52 202 -6.7
2019-Dec-13 03:42 202 -6.7
2019-Dec-13 03:32 202 -6.7
2019-Dec-13 03:22 202 -6.7
2019-Dec-13 03:12 202 -6.7
2019-Dec-13 03:02 202 -6.7
2019-Dec-13 02:52 202 -6.1
2019-Dec-13 02:42 202 -6.1
2019-Dec-13 02:32 202 -6.1
2019-Dec-13 02:22 202 -6.1
2019-Dec-13 02:12 202 -6.1
2019-Dec-13 02:02 202 -6.1
2019-Dec-13 01:52 202 -5.6
2019-Dec-13 01:42 202 -5.6
2019-Dec-13 01:32 202 -5.6
2019-Dec-13 01:22 202 -5.6
2019-Dec-13 01:12 202 -5.6
2019-Dec-13 01:02 202 -5.0
2019-Dec-13 00:52 202 -5.0
2019-Dec-13 00:42 202 -5.0
2019-Dec-13 00:32 202 -5.0
2019-Dec-13 00:22 202 -4.4
2019-Dec-13 00:02 202 -4.4
2019-Dec-12 23:52 202 -4.4
2019-Dec-12 23:42 202 -3.9
2019-Dec-12 23:32 202 -3.9
2019-Dec-12 23:22 202 -3.3
2019-Dec-12 23:12 202 -3.3
2019-Dec-12 23:02 202 -3.3
2019-Dec-12 22:52 202 -2.8
2019-Dec-12 22:42 202 -2.8
2019-Dec-12 22:32 202 -2.2
2019-Dec-12 22:22 202 -2.2
2019-Dec-12 22:12 202 -1.7
2019-Dec-12 22:02 202 -1.7
2019-Dec-12 21:52 202 -1.1
2019-Dec-12 21:42 202 -0.6
2019-Dec-12 21:32 202 -0.0
2019-Dec-12 21:22 202 0.6
2019-Dec-12 21:12 202 1.1
2019-Dec-12 21:02 202 1.7
2019-Dec-12 20:52 202 2.8
2019-Dec-12 20:42 202 3.3
2019-Dec-12 20:32 202 5.0
2019-Dec-12 20:22 202 6.1
2019-Dec-12 20:12 202 7.8
2019-Dec-12 20:02 202 0 gusting 1 7.8
2019-Dec-12 19:52 158 11.7
2019-Dec-12 19:42 112 10.0
2019-Dec-12 19:32 292 0 gusting 1 10.6
2019-Dec-12 19:22 270 1 gusting 1 11.1
2019-Dec-12 19:12 112 1 gusting 2 9.4
2019-Dec-12 19:02 112 9.4
2019-Dec-12 18:52 135 3 gusting 3 8.3
2019-Dec-12 18:42 135 2 gusting 2 7.8
2019-Dec-12 18:32 112 3 gusting 3 7.8
2019-Dec-12 18:22 068 1 gusting 3 7.8
2019-Dec-12 18:12 180 6.1
2019-Dec-12 18:02 158 6.1
2019-Dec-12 17:52 068 6.7
2019-Dec-12 17:42 068 6.1
2019-Dec-12 17:32 135 5.6
2019-Dec-12 17:22 112 5.0
2019-Dec-12 17:12 338 4.4
2019-Dec-12 17:02 090 4.4
2019-Dec-12 16:52 180 3.9
2019-Dec-12 16:42 202 3.9
2019-Dec-12 16:32 112 4.4
2019-Dec-12 16:22 068 3.9
2019-Dec-12 16:12 112 3.9
2019-Dec-12 16:02 112 3.3
2019-Dec-12 15:52 045 3.3
2019-Dec-12 15:42 022 3.3
2019-Dec-12 15:32 225 2.2
2019-Dec-12 15:22 090 1.7
2019-Dec-12 15:12 068 1.7
2019-Dec-12 15:02 022 1.7
2019-Dec-12 14:52 022 1.7
2019-Dec-12 14:42 022 1.7
2019-Dec-12 14:32 045 0.6
2019-Dec-12 14:22 022 -0.0
2019-Dec-12 14:12 068 -0.6
2019-Dec-12 14:02 045 -1.1
2019-Dec-12 13:52 045 -1.7
2019-Dec-12 13:42 022 -2.2
2019-Dec-12 13:32 135 -2.2
2019-Dec-12 13:22 068 -2.8
2019-Dec-12 13:12 112 -2.8
2019-Dec-12 13:02 -3.3
2019-Dec-12 12:52 180 -3.3
2019-Dec-12 12:42 068 -3.3
2019-Dec-12 12:32 045 -3.3
2019-Dec-12 12:22 068 -3.9
2019-Dec-12 12:12 068 -3.9
2019-Dec-12 12:02 112 -3.3